SQ6MTB Weather Reports


Display with metric or nautical units.
time (UTC)temp
F
wind
direction
speed
MPH
gust
MPH
rain 1hr
in
rain 24hr
in
rain mn
in
humidity
%
barometer
mb
20260904080006 69 242 6.0 15.0 0.00 0.00 0.00 78 1013.0
20260904075516 69 228 2.0 11.0 0.00 0.00 0.00 79 1013.1
20260904075021 68 236 3.0 12.0 0.00 0.00 0.00 79 1013.1
20260904074551 68 238 5.0 12.0 0.00 0.00 0.00 79 1013.1
20260904074011 68 187 2.0 14.0 0.00 0.00 0.00 80 1013.2
20260904073552 68 222 2.0 14.0 0.00 0.00 0.00 80 1013.2
20260904073107 67 235 6.0 14.0 0.00 0.00 0.00 80 1013.5
20260904073001 67 244 5.0 14.0 0.00 0.00 0.00 80 1013.5
20260904072510 67 231 5.0 11.0 0.00 0.00 0.00 80 1013.5
20260904072017 67 245 1.0 11.0 0.00 0.00 0.00 81 1013.4
20260904071558 67 223 2.0 11.0 0.00 0.00 0.00 81 1013.3
20260904071041 67 240 2.0 9.0 0.00 0.00 0.00 81 1013.3
20260904070550 66 234 2.0 9.0 0.00 0.00 0.00 81 1013.4
20260904070107 66 225 3.0 9.0 0.00 0.00 0.00 81 1013.4
20260904065503 66 224 2.0 9.0 0.00 0.00 0.00 81 1013.5
20260904065009 66 223 1.0 14.0 0.00 0.00 0.00 81 1013.6
20260904064549 66 236 8.0 14.0 0.00 0.00 0.00 81 1013.6
20260904064100 66 241 3.0 13.0 0.00 0.00 0.00 82 1013.6
20260904064002 66 267 2.0 13.0 0.00 0.00 0.00 82 1013.6
20260904063505 66 231 5.0 11.0 0.00 0.00 0.00 82 1013.7
20260904063014 65 232 2.0 9.0 0.00 0.00 0.00 83 1013.8
20260904062523 65 222 3.0 12.0 0.00 0.00 0.00 83 1013.9
20260904062029 65 181 4.0 12.0 0.00 0.00 0.00 83 1013.9
20260904061511 65 229 3.0 11.0 0.00 0.00 0.00 83 1014.0
20260904061019 65 219 2.0 13.0 0.00 0.00 0.00 84 1014.2
20260904060526 64 185 4.0 13.0 0.00 0.00 0.00 84 1014.3
20260904060032 64 229 3.0 12.0 0.00 0.00 0.00 85 1014.3
20260904055544 64 266 1.0 10.0 0.00 0.00 0.00 85 1014.2
20260904055050 63 238 2.0 10.0 0.00 0.00 0.00 85 1014.2
20260904054558 63 251 0.0 5.0 0.00 0.00 0.00 85 1014.1
20260904054008 63 207 1.0 7.0 0.00 0.00 0.00 85 1014.1
20260904053548 63 231 1.0 7.0 0.00 0.00 0.00 85 1014.1
20260904053059 63 219 1.0 4.0 0.00 0.00 0.00 85 1014.1
20260904052601 63 119 1.0 9.0 0.00 0.00 0.00 85 1014.2
20260904052501 63 216 0.0 9.0 0.00 0.00 0.00 85 1014.2
20260904052005 63 221 1.0 9.0 0.00 0.00 0.00 85 1014.2
20260904051518 63 239 1.0 7.0 0.00 0.00 0.00 85 1014.3
20260904051020 63 226 0.0 7.0 0.00 0.00 0.00 85 1014.3
20260904050527 63 187 1.0 7.0 0.00 0.00 0.00 85 1014.5
20260904050038 63 223 1.0 10.0 0.00 0.00 0.00 85 1014.6
20260904045543 63 232 1.0 10.0 0.00 0.00 0.00 85 1014.5
20260904045027 63 242 1.0 9.0 0.00 0.00 0.00 85 1014.6
20260904044506 63 264 3.0 9.0 0.00 0.00 0.00 85 1014.5
20260904044017 63 220 2.0 9.0 0.00 0.00 0.00 85 1014.6
20260904043525 63 229 1.0 9.0 0.00 0.00 0.00 85 1014.7
20260904043027 63 261 0.0 9.0 0.00 0.00 0.00 85 1014.5
20260904042509 63 248 1.0 9.0 0.00 0.00 0.00 85 1014.5
20260904042048 63 208 0.0 5.0 0.00 0.00 0.00 85 1014.5
20260904041557 63 232 2.0 5.0 0.00 0.00 0.00 85 1014.4
20260904041003 63 240 0.0 5.0 0.00 0.00 0.00 85 1014.3
20260904040512 63 234 0.0 5.0 0.00 0.00 0.00 85 1014.5
20260904040017 63 270 0.0 5.0 0.00 0.00 0.00 85 1014.6
20260904035525 63 228 2.0 5.0 0.00 0.00 0.00 85 1014.7
20260904035035 63 215 1.0 5.0 0.00 0.00 0.00 85 1014.8
20260904034513 63 230 1.0 6.0 0.00 0.00 0.00 85 1014.9
20260904034051 63 310 1.0 8.0 0.00 0.00 0.00 85 1014.9
20260904033559 63 236 1.0 12.0 0.00 0.00 0.00 85 1014.9
20260904033504 63 224 3.0 12.0 0.00 0.00 0.00 85 1014.9
20260904033010 63 238 4.0 9.0 0.00 0.00 0.00 85 1015.1
20260904032519 63 251 2.0 9.0 0.00 0.00 0.00 85 1014.8
20260904032025 63 243 3.0 9.0 0.00 0.00 0.00 85 1014.9
20260904031507 63 232 3.0 9.0 0.00 0.00 0.00 85 1014.8
20260904031047 63 238 2.0 7.0 0.00 0.00 0.00 85 1014.8
20260904030554 63 241 3.0 9.0 0.00 0.00 0.00 85 1014.6
20260904030003 63 238 1.0 9.0 0.00 0.00 0.00 84 1014.8
20260904025507 63 238 3.0 9.0 0.00 0.00 0.00 84 1015.1
20260904025013 63 224 5.0 11.0 0.00 0.00 0.00 84 1015.2
20260904024521 63 231 5.0 12.0 0.00 0.00 0.00 84 1015.2
20260904024029 63 274 2.0 12.0 0.00 0.00 0.00 85 1015.3
20260904023511 63 232 5.0 11.0 0.00 0.00 0.00 85 1015.2
20260904023053 62 246 4.0 11.0 0.00 0.00 0.00 85 1015.2
20260904022559 62 238 6.0 12.0 0.00 0.00 0.00 85 1015.1
20260904022501 62 254 7.0 12.0 0.00 0.00 0.00 85 1015.1
20260904022007 62 244 7.0 12.0 0.00 0.00 0.00 85 1015.1
20260904021515 62 276 3.0 12.0 0.00 0.00 0.00 85 1015.1
20260904021049 62 260 3.0 12.0 0.00 0.00 0.00 85 1015.1
20260904020531 62 217 3.0 14.0 0.00 0.00 0.00 85 1015.0
20260904020043 62 238 7.0 14.0 0.00 0.00 0.00 85 1015.0
20260904015549 62 233 6.0 12.0 0.00 0.00 0.00 85 1015.1
20260904015055 62 242 5.0 11.0 0.00 0.00 0.00 85 1015.2
20260904014505 62 258 5.0 12.0 0.00 0.00 0.00 85 1015.0
20260904014038 62 207 2.0 9.0 0.00 0.00 0.00 85 1015.0
20260904013519 62 219 1.0 11.0 0.00 0.00 0.00 85 1015.0
20260904013101 62 261 3.0 11.0 0.00 0.00 0.00 85 1015.1
20260904013001 62 236 1.0 8.0 0.00 0.00 0.00 85 1015.1
20260904012509 62 260 1.0 9.0 0.00 0.00 0.00 84 1015.0
20260904012016 62 242 4.0 9.0 0.00 0.00 0.00 84 1015.1
20260904011526 62 242 3.0 10.0 0.00 0.00 0.00 84 1015.2
20260904011029 62 240 0.0 11.0 0.00 0.00 0.00 84 1015.2
20260904010537 62 306 2.0 11.0 0.00 0.00 0.00 84 1015.3
20260904010049 62 240 3.0 9.0 0.00 0.00 0.00 84 1015.4
20260904005555 62 251 4.0 10.0 0.00 0.00 0.00 84 1015.5
20260904005055 62 276 1.0 8.0 0.00 0.00 0.00 84 1015.3
20260904005003 62 237 1.0 8.0 0.00 0.00 0.00 84 1015.3
20260904004536 62 224 3.0 10.0 0.00 0.00 0.00 84 1015.5
20260904004020 62 238 4.0 10.0 0.00 0.00 0.00 83 1015.5
20260904003521 62 238 3.0 10.0 0.00 0.00 0.00 83 1015.4
20260904003029 62 247 3.0 10.0 0.00 0.00 0.00 83 1015.5
20260904002541 63 227 3.0 11.0 0.00 0.00 0.00 83 1015.6
20260904002044 63 233 3.0 11.0 0.00 0.00 0.00 83 1015.5
20260904001551 63 257 3.0 9.0 0.00 0.00 0.00 83 1015.5
20260904001056 63 242 3.0 12.0 0.00 0.00 0.00 82 1015.5
20260904000509 63 237 4.0 12.0 0.00 0.00 0.00 82 1015.5
20260904000043 63 242 3.0 13.0 0.00 0.00 0.00 82 1015.5
20260903235550 63 288 5.0 14.0 0.00 0.00 0.00 82 1015.6
20260903235031 63 232 5.0 14.0 0.00 0.00 0.00 82 1015.7
20260903234543 63 248 5.0 11.0 0.00 0.00 0.00 82 1015.7
20260903234047 64 268 5.0 10.0 0.00 0.00 0.00 82 1015.6
20260903233554 64 285 4.0 13.0 0.00 0.00 0.00 81 1015.8
20260903233005 64 275 5.0 13.0 0.00 0.00 0.00 81 1015.8
20260903232515 64 241 6.0 13.0 0.00 0.00 0.00 82 1015.8
20260903232015 64 259 6.0 12.0 0.00 0.00 0.00 81 1015.9
20260903231523 64 281 7.0 12.0 0.00 0.00 0.00 81 1016.0
20260903231029 64 260 8.0 12.0 0.00 0.00 0.00 81 1016.0
20260903230509 64 235 4.0 14.0 0.00 0.00 0.00 81 1015.8
20260903230100 64 257 5.0 17.0 0.00 0.00 0.00 81 1015.8
20260903225558 64 248 8.0 17.0 0.00 0.00 0.00 81 1015.8
20260903225004 64 259 5.0 12.0 0.00 0.00 0.00 81 1015.8
20260903224532 64 251 5.0 11.0 0.00 0.00 0.00 81 1015.8
20260903224017 64 238 3.0 11.0 0.00 0.00 0.00 81 1015.8
20260903223551 64 254 6.0 10.0 0.00 0.00 0.00 81 1015.8
20260903223036 64 265 2.0 16.0 0.00 0.00 0.00 81 1015.8
20260903222548 64 216 6.0 16.0 0.00 0.00 0.00 81 1015.8
20260903222051 64 240 5.0 15.0 0.00 0.00 0.00 81 1015.9
20260903221559 63 249 4.0 12.0 0.00 0.00 0.00 81 1016.1
20260903221502 63 240 5.0 12.0 0.00 0.00 0.00 81 1016.1
20260903221006 63 267 4.0 13.0 0.00 0.00 0.00 82 1016.0
20260903220515 63 241 5.0 13.0 0.00 0.00 0.00 82 1015.9
20260903220022 63 227 5.0 13.0 0.00 0.00 0.00 82 1016.0
20260903215525 63 230 5.0 12.0 0.00 0.00 0.00 82 1016.1
20260903215032 63 227 5.0 14.0 0.00 0.00 0.00 82 1016.2
20260903214551 63 248 7.0 14.0 0.00 0.00 0.00 82 1016.1
20260903214051 63 227 4.0 13.0 0.00 0.00 0.00 82 1016.1
20260903213554 63 265 4.0 15.0 0.00 0.00 0.00 82 1016.0
20260903213046 63 242 5.0 16.0 0.00 0.00 0.00 82 1016.1
20260903212549 63 269 7.0 16.0 0.00 0.00 0.00 82 1016.1
20260903212057 63 238 5.0 13.0 0.00 0.00 0.00 82 1016.1
20260903211602 63 235 6.0 12.0 0.00 0.00 0.00 82 1016.1
20260903211507 63 275 6.0 12.0 0.00 0.00 0.00 81 1016.1
20260903211046 63 243 6.0 14.0 0.00 0.00 0.00 81 1016.1
20260903210556 63 243 6.0 14.0 0.00 0.00 0.00 81 1015.9
20260903210007 63 261 7.0 14.0 0.00 0.00 0.00 81 1016.0
20260903205542 64 265 7.0 16.0 0.00 0.00 0.00 81 1016.1
20260903205024 64 168 8.0 16.0 0.00 0.00 0.00 81 1016.2
20260903204533 63 261 7.0 13.0 0.00 0.00 0.00 81 1016.3
20260903204012 63 213 4.0 15.0 0.00 0.00 0.00 81 1016.3
20260903203523 63 236 7.0 15.0 0.00 0.00 0.00 81 1016.4
20260903203105 63 239 7.0 13.0 0.00 0.00 0.00 81 1016.4
20260903203005 63 232 6.0 13.0 0.00 0.00 0.00 81 1016.4
20260903202512 64 267 7.0 14.0 0.00 0.00 0.00 81 1016.4
20260903202017 64 270 7.0 14.0 0.00 0.00 0.00 81 1016.2
20260903201556 64 213 5.0 12.0 0.00 0.00 0.00 81 1016.2
20260903201039 64 242 4.0 12.0 0.00 0.00 0.00 81 1016.2
20260903200546 64 254 2.0 14.0 0.00 0.00 0.00 81 1016.0
20260903200029 64 240 6.0 14.0 0.00 0.00 0.00 81 1016.3
20260903195510 64 252 4.0 20.0 0.00 0.00 0.00 81 1016.3
20260903195014 64 256 4.0 17.0 0.00 0.00 0.00 81 1016.3
20260903194538 64 261 5.0 15.0 0.00 0.00 0.00 81 1016.2
20260903194057 64 241 5.0 17.0 0.00 0.00 0.00 80 1016.2
20260903193544 64 232 10.0 18.0 0.00 0.00 0.00 80 1016.3
20260903193052 64 276 11.0 18.0 0.00 0.00 0.00 80 1016.3
20260903192553 65 223 9.0 18.0 0.00 0.00 0.00 80 1016.3
20260903192034 65 284 11.0 18.0 0.00 0.00 0.00 80 1016.3
20260903191533 65 234 8.0 18.0 0.00 0.00 0.00 80 1016.4
20260903191054 65 247 9.0 18.0 0.00 0.00 0.00 80 1016.4
20260903190503 65 224 5.0 17.0 0.00 0.00 0.00 79 1016.3
20260903190010 65 269 4.0 18.0 0.00 0.00 0.00 79 1016.3
20260903185516 65 244 8.0 19.0 0.00 0.00 0.00 79 1016.4
20260903185022 65 275 7.0 16.0 0.00 0.00 0.00 79 1016.3
20260903184558 66 226 10.0 21.0 0.00 0.00 0.00 79 1016.1
20260903184509 66 262 10.0 21.0 0.00 0.00 0.00 79 1016.1
20260903184044 66 273 9.0 21.0 0.00 0.00 0.00 78 1016.0
20260903183550 66 253 7.0 19.0 0.00 0.00 0.00 78 1016.3
20260903183055 66 262 12.0 22.0 0.00 0.00 0.00 78 1016.2
20260903183001 66 261 12.0 22.0 0.00 0.00 0.00 77 1016.0
20260903182535 66 234 11.0 21.0 0.00 0.00 0.00 77 1016.1
20260903182017 67 232 10.0 18.0 0.00 0.00 0.00 76 1015.9
20260903181537 67 244 9.0 21.0 0.00 0.00 0.00 76 1015.8
20260903181032 67 275 9.0 22.0 0.00 0.00 0.00 75 1015.8
20260903180512 67 242 15.0 25.0 0.00 0.00 0.00 74 1015.8
20260903180055 67 225 8.0 19.0 0.00 0.00 0.00 73 1015.8
20260903175503 68 207 11.0 23.0 0.00 0.00 0.00 72 1015.8
20260903175010 68 242 10.0 23.0 0.00 0.00 0.00 72 1015.6
20260903174515 68 248 12.0 21.0 0.00 0.00 0.00 71 1015.6
20260903174050 68 277 11.0 21.0 0.00 0.00 0.00 70 1015.6
20260903173532 69 234 10.0 22.0 0.00 0.00 0.00 69 1015.6
20260903173049 69 269 14.0 28.0 0.00 0.00 0.00 68 1015.6
20260903172548 69 248 13.0 28.0 0.00 0.00 0.00 67 1015.7
20260903172034 70 238 10.0 17.0 0.00 0.00 0.00 66 1015.7
20260903171544 70 251 7.0 14.0 0.00 0.00 0.00 66 1015.4
20260903171052 70 233 8.0 18.0 0.00 0.00 0.00 65 1015.3
20260903170558 71 231 11.0 23.0 0.00 0.00 0.00 64 1015.4
20260903170010 71 259 12.0 23.0 0.00 0.00 0.00 63 1015.4
20260903165549 71 284 10.0 22.0 0.00 0.00 0.00 63 1015.4
20260903165100 71 260 12.0 22.0 0.00 0.00 0.00 62 1015.4
20260903164508 71 136 9.0 24.0 0.00 0.00 0.00 62 1015.3
20260903164016 71 255 11.0 20.0 0.00 0.00 0.00 63 1015.3
20260903163555 71 266 11.0 20.0 0.00 0.00 0.00 63 1015.4
20260903163007 71 216 5.0 12.0 0.00 0.00 0.00 64 1015.3
20260903162516 71 232 4.0 12.0 0.00 0.00 0.00 63 1015.2
20260903162023 71 211 2.0 10.0 0.00 0.00 0.00 63 1015.4
20260903161603 71 227 4.0 10.0 0.00 0.00 0.00 63 1015.4
20260903161505 71 249 4.0 10.0 0.00 0.00 0.00 62 1015.4
20260903161042 71 184 1.0 7.0 0.00 0.00 0.00 62 1015.4
20260903160553 71 221 2.0 6.0 0.00 0.00 0.00 62 1015.5
20260903160104 71 182 2.0 6.0 0.00 0.00 0.00 62 1015.5
20260903155508 72 186 2.0 6.0 0.00 0.00 0.00 61 1015.5
20260903155044 72 186 2.0 6.0 0.00 0.00 0.00 60 1015.6
20260903154524 72 143 3.0 10.0 0.00 0.00 0.00 60 1015.7
20260903154032 73 192 1.0 10.0 0.00 0.00 0.00 59 1015.7
20260903153537 73 250 1.0 10.0 0.00 0.00 0.00 58 1015.8
20260903153046 73 168 4.0 11.0 0.00 0.00 0.00 58 1015.8
20260903152552 74 314 5.0 12.0 0.00 0.00 0.00 58 1015.7
20260903152052 73 209 4.0 11.0 0.00 0.00 0.00 59 1015.9
20260903151531 73 266 4.0 10.0 0.00 0.00 0.00 59 1015.7
20260903151013 72 235 2.0 11.0 0.00 0.00 0.00 60 1015.8
20260903150520 72 242 3.0 12.0 0.00 0.00 0.00 60 1015.9
20260903150034 72 248 2.0 12.0 0.00 0.00 0.00 61 1016.2
20260903145533 72 223 3.0 12.0 0.00 0.00 0.00 60 1016.1
20260903145040 72 231 4.0 9.0 0.00 0.00 0.00 58 1016.3
20260903144523 72 215 2.0 8.0 0.00 0.00 0.00 58 1016.3
20260903144007 73 244 3.0 15.0 0.00 0.00 0.00 58 1016.3
20260903143511 73 238 8.0 15.0 0.00 0.00 0.00 57 1016.3
20260903143020 73 259 5.0 15.0 0.00 0.00 0.00 56 1016.3
20260903142528 74 209 4.0 15.0 0.00 0.00 0.00 56 1016.3
20260903142032 74 227 5.0 17.0 0.00 0.00 0.00 55 1016.4
20260903141513 74 265 8.0 17.0 0.00 0.00 0.00 55 1016.3
20260903141025 73 240 5.0 11.0 0.00 0.00 0.00 55 1016.4
20260903140528 73 196 3.0 10.0 0.00 0.00 0.00 56 1016.4
20260903140018 73 244 5.0 12.0 0.00 0.00 0.00 56 1016.4
20260903135546 72 155 3.0 12.0 0.00 0.00 0.00 58 1016.5
20260903135029 72 179 4.0 12.0 0.00 0.00 0.00 58 1016.6
20260903134535 72 243 2.0 11.0 0.00 0.00 0.00 57 1016.6
20260903134045 72 240 5.0 13.0 0.00 0.00 0.00 58 1016.8
20260903133524 72 243 6.0 14.0 0.00 0.00 0.00 57 1016.8
20260903133006 72 163 5.0 17.0 0.00 0.00 0.00 57 1017.0
20260903132511 72 238 7.0 17.0 0.00 0.00 0.00 57 1017.0
20260903132020 72 207 5.0 18.0 0.00 0.00 0.00 57 1017.1
20260903131556 72 266 7.0 18.0 0.00 0.00 0.00 57 1017.1
20260903131042 71 238 7.0 18.0 0.00 0.00 0.00 58 1017.1
20260903130549 71 247 6.0 18.0 0.00 0.00 0.00 57 1017.1
20260903130059 72 279 6.0 14.0 0.00 0.00 0.00 57 1017.2
20260903125510 72 233 5.0 14.0 0.00 0.00 0.00 56 1017.2
20260903125022 72 205 6.0 14.0 0.00 0.00 0.00 56 1017.2
20260903124604 72 150 6.0 16.0 0.00 0.00 0.00 58 1017.1
20260903124009 72 227 6.0 17.0 0.00 0.00 0.00 59 1017.2
20260903123518 72 219 6.0 16.0 0.00 0.00 0.00 59 1017.3
20260903123029 72 257 6.0 17.0 0.00 0.00 0.00 58 1017.2
20260903122533 72 277 7.0 17.0 0.00 0.00 0.00 57 1017.3
20260903122042 72 225 9.0 17.0 0.00 0.00 0.00 58 1017.3
20260903121523 71 258 9.0 17.0 0.00 0.00 0.00 58 1017.4
20260903121033 72 248 7.0 17.0 0.00 0.00 0.00 58 1017.4
20260903120548 72 257 7.0 17.0 0.00 0.00 0.00 58 1017.5
20260903120053 72 227 6.0 16.0 0.00 0.00 0.00 58 1017.5
20260903115555 72 227 5.0 14.0 0.00 0.00 0.00 58 1017.5
20260903115503 72 234 5.0 14.0 0.00 0.00 0.00 59 1017.5
20260903115043 71 207 4.0 16.0 0.00 0.00 0.00 58 1017.6
20260903114609 71 235 9.0 16.0 0.00 0.00 0.00 57 1017.7
20260903114055 71 244 6.0 11.0 0.00 0.00 0.00 56 1017.6
20260903113505 71 246 4.0 12.0 0.00 0.00 0.00 56 1017.6
20260903113015 71 229 5.0 12.0 0.00 0.00 0.00 57 1017.6
20260903112554 71 223 5.0 14.0 0.00 0.00 0.00 58 1017.5
20260903112004 70 219 6.0 14.0 0.00 0.00 0.00 57 1017.6
20260903111512 70 285 4.0 13.0 0.00 0.00 0.00 58 1018.0
20260903111022 70 248 5.0 17.0 0.00 0.00 0.00 58 1018.0
20260903110528 70 219 4.0 17.0 0.00 0.00 0.00 58 1018.0
20260903110009 70 286 6.0 12.0 0.00 0.00 0.00 57 1018.0
20260903105517 70 255 6.0 12.0 0.00 0.00 0.00 57 1018.1
20260903105025 71 237 7.0 12.0 0.00 0.00 0.00 58 1018.0
20260903104534 71 232 4.0 11.0 0.00 0.00 0.00 58 1018.2
20260903104016 70 276 3.0 12.0 0.00 0.00 0.00 59 1018.0
20260903103555 70 221 4.0 14.0 0.00 0.00 0.00 58 1018.2
20260903103006 70 205 6.0 14.0 0.00 0.00 0.00 57 1018.2
20260903102514 70 263 5.0 12.0 0.00 0.00 0.00 58 1018.2
20260903102022 70 243 4.0 10.0 0.00 0.00 0.00 58 1018.2
20260903101540 70 229 4.0 12.0 0.00 0.00 0.00 57 1018.2
20260903101011 70 251 5.0 12.0 0.00 0.00 0.00 58 1018.2
20260903100519 70 196 6.0 12.0 0.00 0.00 0.00 58 1018.2
20260903100033 71 193 3.0 12.0 0.00 0.00 0.00 58 1018.3
20260903095535 71 154 5.0 14.0 0.00 0.00 0.00 60 1018.4
20260903095018 70 234 6.0 15.0 0.00 0.00 0.00 61 1018.6
20260903094525 70 227 5.0 10.0 0.00 0.00 0.00 62 1018.5
20260903094035 70 242 2.0 12.0 0.00 0.00 0.00 61 1018.5
20260903093520 69 236 8.0 12.0 0.00 0.00 0.00 62 1018.4
20260903093125 69 234 4.0 15.0 0.00 0.00 0.00 65 1018.5
20260903092505 70 272 7.0 17.0 0.00 0.00 0.00 63 1018.7
20260903092011 70 196 3.0 11.0 0.00 0.00 0.00 66 1018.8
20260903091519 69 240 5.0 11.0 0.00 0.00 0.00 66 1018.8
20260903091025 69 244 5.0 10.0 0.00 0.00 0.00 65 1018.8
20260903090508 69 268 3.0 11.0 0.00 0.00 0.00 66 1018.9
20260903090015 69 209 6.0 11.0 0.00 0.00 0.00 65 1018.9
20260903085523 69 257 5.0 15.0 0.00 0.00 0.00 65 1018.9
20260903085100 69 231 7.0 15.0 0.00 0.00 0.00 65 1019.0
20260903085007 69 234 7.0 15.0 0.00 0.00 0.00 65 1019.0
20260903084545 69 338 5.0 9.0 0.00 0.00 0.00 65 1018.9
20260903084044 69 184 3.0 10.0 0.00 0.00 0.00 66 1018.9
20260903083525 69 190 5.0 10.0 0.00 0.00 0.00 66 1019.0
20260903083008 69 222 5.0 11.0 0.00 0.00 0.00 66 1019.0
20260903082518 69 232 7.0 11.0 0.00 0.00 0.00 65 1019.0
20260903082019 69 248 2.0 9.0 0.00 0.00 0.00 67 1018.8
20260903081535 68 236 3.0 10.0 0.00 0.00 0.00 68 1019.0
20260903081013 68 223 2.0 10.0 0.00 0.00 0.00 70 1018.9
20260903080549 67 222 2.0 11.0 0.00 0.00 0.00 72 1018.9